Regional Weather Roundup
Issued by NWS

Home | Current Version | Previous Version | Graphics & Text | Print | Product List | Glossary Off
Versions: 1 2 3 4 5 6 7 8 9 10 11 12 13 14 15 16 17 18 19 20 21 22 23 24 25 26 27 28 29 30 31 32 33 34 35 36 37 38 39 40 41 42 43 44 45 46 47 48 49 50

416
ASUS43 KMKX 251911
RWRWI

WISCONSIN REGIONAL WEATHER ROUNDUP
NATIONAL WEATHER SERVICE MILWAUKEE/SULLIVAN WI
200 PM CDT SAT MAR 25 2017

NOTE: "FAIR" INDICATES FEW OR NO CLOUDS BELOW 12,000 FEET WITH NO
SIGNIFICANT WEATHER AND/OR OBSTRUCTIONS TO VISIBILITY.

WIZ001-002-006>008-014>016-023>028-252000-
NORTHWEST WISCONSIN

CITY           SKY/WX    TMP DP  RH WIND       PRES   REMARKS
SUPERIOR ARPT  CLOUDY    35  31  85 NE18G26   30.25F WCI  25
ASHLAND        CLOUDY    36  30  79 NE14      30.26F WCI  27
HAYWARD        CLOUDY    41  29  62 E9        30.19F
SIREN          CLOUDY    42  30  63 E8        30.18F
CUMBERLAND     CLOUDY    37  30  75 E13       30.16F WCI  29
RICE LAKE      CLOUDY    41  32  70 E12       30.18F
CHETEK         CLOUDY    40  32  74 E8        30.16F WCI  34
LADYSMITH      CLOUDY    39  32  75 NE14      30.19F WCI  31
EAU CLAIRE     CLOUDY    40  32  73 E17       30.13F WCI  31
MENOMONIE      CLOUDY    41  33  73 NE13      30.14F
NEW RICHMOND   CLOUDY    40  32  73 NE13      30.14F WCI  33
OSCEOLA        CLOUDY    39  32  75 E10       30.19F WCI  33
$$

WIZ003>005-009-010-017-018-252000-
NORTH CENTRAL WISCONSIN

CITY           SKY/WX    TMP DP  RH WIND       PRES   REMARKS
MANITOWISH WTR CLOUDY    35  32  88 E7G17     30.21F WCI  29
ARBOR VITAE    CLOUDY    37  31  79 E9        30.19F WCI  30
WOODRUFF       CLOUDY    37  31  79 E9        30.19F WCI  30
RHINELANDER    CLOUDY    37  31  78 E16       30.20F WCI  28
EAGLE RIVER    CLOUDY    36  29  74 SE10G18   30.21F WCI  29
LAND O LAKES   CLOUDY    36  31  82 SE10G17   30.23F WCI  28
PHILLIPS       CLOUDY    37  31  81 E8        30.18F WCI  30
TOMAHAWK       CLOUDY    37  30  77 E7        30.19F WCI  31
MEDFORD        CLOUDY    37  32  84 E16       30.15F WCI  27
MERRILL        CLOUDY    38  32  80 E13       30.18F WCI  30
$$

WIZ029-030-035-036-043>047-252000-
CENTRAL WISCONSIN

CITY           SKY/WX    TMP DP  RH WIND       PRES   REMARKS
WAUSAU         CLOUDY    39  32  76 E12       30.14F WCI  32
MOSINEE        CLOUDY    37  34  87 E15G25    30.16F WCI  28
MARSHFIELD     CLOUDY    38  32  79 E22G28    30.12F WCI  27
STEVENS POINT  CLOUDY    37  32  84 NE18G26   30.14F WCI  26
WAUPACA        CLOUDY    40  34  80 NE8G18    30.17F WCI  34
WAUTOMA        CLOUDY    37  34  89 NE17G25   30.13  WCI  27
WISC RAPIDS    CLOUDY    39  34  82 E16G29    30.14F WCI  30
CAMP DOUGLAS   CLOUDY    37  36  93 NE12G21   30.10F WCI  30
$$

WIZ011>013-019>022-031-037>040-048>050-252000-
NORTHEAST WISCONSIN

CITY           SKY/WX    TMP DP  RH WIND       PRES   REMARKS
ANTIGO         CLOUDY    36  32  84 E17G25    30.18F WCI  26
SHAWANO        CLOUDY    38  33  80 NE14G22   30.20F WCI  30
OCONTO         CLOUDY    36  32  85 NE12G18   30.22F WCI  28
STURGEON BAY   CLOUDY    37  32  82 NE10G25   30.23F WCI  30
GREEN BAY      CLOUDY    37  36  96 NE18      30.19F WCI  27
MANITOWOC      CLOUDY    38  34  85 NE10G20   30.18F WCI  31
APPLETON       CLOUDY    37  34  87 NE17G25   30.14F WCI  28
CLINTONVILLE   CLOUDY    37  32  81 NE13G21   30.18F WCI  29
OSHKOSH        CLOUDY    37  34  89 NE14      30.14F WCI  28
$$

WIZ032>034-041-042-053>061-252000-
SOUTHWEST WISCONSIN

CITY           SKY/WX    TMP DP  RH WIND       PRES   REMARKS
LA CROSSE      CLOUDY    41  35  79 NE12G20   30.08F
SPARTA         CLOUDY    38  35  89 E15G28    30.10F WCI  29
VIROQUA        CLOUDY    37  36  99 E20G26    30.04F WCI  26
BOSCOBEL       LGT RAIN  41  37  86 NE9G18    30.04F
PRAIRIE DU CHI RAIN      40  37  89 E9        30.03S WCI  34
PLATTEVILLE    CLOUDY    40  40 100 NE18G28   29.99F WCI  31
$$

WIZ056-057-062-063-064-067-068-252000-
SOUTH CENTRAL WISCONSIN

CITY           SKY/WX    TMP DP  RH WIND       PRES   REMARKS
REEDSBURG      CLOUDY    37  37 100 NE16G23   30.08F WCI  27
BARABOO/DELLS  CLOUDY    37  35  94 E20G28    30.08S WCI  26
LONE ROCK      LGT RAIN  40  36  86 E13G24    30.06F FOG     WCI  32
MINERAL POINT  LGT RAIN  39  39 100 NE20      30.01R WCI  30
MADISON        RAIN      39  37  92 E16       30.07F FOG     WCI  30
MIDDLETON      CLOUDY    40  38  95 E17       30.07F WCI  31
WATERTOWN      CLOUDY    38  38 100 E14       30.08F WCI  30
MONROE         CLOUDY    39  37  93 NE16G24   30.00F WCI  30
JANESVILLE     DRIZZLE   41  41 100 E17       30.03F
$$

WIZ051-052-058>065-066-070>072-252000-
SOUTHEAST WISCONSIN

CITY           SKY/WX    TMP DP  RH WIND       PRES   REMARKS
MILWAUKEE      LGT RAIN  39  36  89 NE14      30.11S FOG     WCI  31
WAUKESHA       LGT RAIN  36  36 100 E16G25    30.09F WCI  26
MILWAUKEE/TIMM LGT RAIN  37  34  87 NE15G21   30.11F WCI  28
RACINE         LGT RAIN  39  36  89 NE15      30.09F WCI  31
KENOSHA        LGT RAIN  39  37  92 NE21G26   30.06F FOG     WCI  29
FOND DU LAC    CLOUDY    39  33  79 E16G26    30.13F WCI  30
SHEBOYGAN      CLOUDY    37  34  89 NE20      30.15F WCI  27
WEST BEND      DRIZZLE   36  36 100 NE17G25   30.10F WCI  25
JUNEAU         LGT RAIN  37  36  95 NE14G20   30.10F WCI  28
$$

LSZ147-162-252000-
LAKE SUPERIOR

STATION/POSITION TIME  TEMP    WIND        PRES    WAVE
                       AIR SEA DIR/SP/G            HT/PER
                 (UTC) (F)     (DEG/KT/KT) (MB)    (FT/S)
DEVILS ISLAND    1900   32      60/ 23/ 26 1026.5F
PORT WING        1828   34      40/ 21/ 25 1024.7F
SAXON HARBOR     1830   34      40/ 14/ 16 1024.4F
$$

LMZ867-665-643>646-252000-
LAKE MICHIGAN

STATION/POSITION TIME  TEMP    WIND        PRES    WAVE
                       AIR SEA DIR/SP/G            HT/PER
                 (UTC) (F)     (DEG/KT/KT) (MB)    (FT/S)
CHAMBERS ISLAND  1840   34      40/ 15/ 21 1024.7F
NORTHPORT PIER   1840   34      60/ 17/ 21 1025.1F
SISTER BAY       1835   38      90/ 13/ 21   N/A
KEWAUNEE LAKESHO 1842   36      50/ 14/ 20 1022.3F
SHEBOYGAN LAKESH 1900   37      30/ 19/ 21 1021.5F
PORT WASHINGTON  1900   38      40/ 17/ 23 1021.0
MILWAUKEE LAKESH 1850   37      30/ 18/ 20   N/A
KENOSHA   LAKESH 1900   38      30/ 14/ 16 1018.3
$$

TC  - TEMPERATURE IN CELSIUS
VSB - VISIBILITY IN STATUTE MILES
WCI - WIND CHILL INDEX
HX  - HEAT INDEX





USA.gov is the U.S. government's official web portal to all federal, state and local government web resources and services.